Weather Roundup
Issued by NWS Chicago, IL

Home | Current Version | Previous Version | Text Only | Print | Product List | Glossary On
Versions: 1 2 3 4 5 6 7 8 9 10 11 12 13 14 15 16 17 18 19 20 21 22 23 24 25 26 27 28 29 30 31 32 33 34 35 36 37 38 39 40 41 42 43 44 45 46 47 48 49 50
000
NZUS59 KLOT 201610
HRRLOT

CHICAGO AREA WEATHER ROUNDUP
NATIONAL WEATHER SERVICE CHICAGO/ROMEOVILLE IL
1100 AM CDT SUN APR 20 2014

NOTE: "FAIR" INDICATES FEW OR NO CLOUDS BELOW 12,000 FEET WITH NO
SIGNIFICANT WEATHER AND/OR OBSTRUCTIONS TO VISIBILITY.

* THESE STATIONS ARE NOT UNDER NWS QUALITY CONTROL. THEY ALSO MAY NOT
  REPORT WEATHER SUCH AS PRECIPITATION OR FOG.

ILZ005-006-012>014-019>023-201700-
NORTHEAST ILLINOIS

CITY           SKY/WX    TMP DP  RH WIND       PRES   REMARKS
OHARE          PTSUNNY   68  36  30 S13       30.19F
MIDWAY         PTSUNNY   66  37  34 S12       30.20F
AURORA         SUNNY     66  40  38 S15       30.19F
LANSING*       SUNNY     66  35  31 SW14      30.21F
JOLIET*        SUNNY     66  38  35 S10       30.21S
WAUKEGAN       MOSUNNY   66  36  32 S13       30.18F
DUPAGE AIRPORT SUNNY     66  38  35 S15       30.19F
WHEELING       SUNNY     68  38  33 S10       30.20F
KANKAKEE*      SUNNY     69  42  37 S13       30.21F
MORRIS*        SUNNY     70  31  23 S15       30.19F
LEWIS AIRPORT* SUNNY     66  36  32 S10       30.20S
NORTHERLY IS     N/A     65  32  29 SW8         N/A
$$

WIZ051-052-058>065-066-070>072-201700-
SOUTHEAST WISCONSIN

CITY           SKY/WX    TMP DP  RH WIND       PRES   REMARKS
MILWAUKEE      PTSUNNY   65  36  34 S15       30.17F
KENOSHA*       MOSUNNY   67  38  34 S13       30.17F
RACINE*        MOSUNNY   56  35  45 SE10      30.19F
BURLINGTON     PTSUNNY   67  37  32 W15       30.16F
WAUKESHA       PTSUNNY   59  36  41 S10       30.17F
WEST BEND      PTSUNNY   61  36  39 S8        30.15S
$$

INZ001>003-010>013-019-020-201700-
NORTHWEST INDIANA

CITY           SKY/WX    TMP DP  RH WIND       PRES   REMARKS
GARY*          MOSUNNY   66  34  30 S9        30.21F
MICHIGAN CITY* NOT AVBL
RENSSELAER*    NOT AVBL
VALPARAISO     MOSUNNY   65  33  30 S12       30.23F
$$

LMZ740>746-201700-
SOUTHERN LAKE MICHIGAN

STATION/POSITION TIME  SKY/WX   TEMP WIND        PRES    VSBY
                                AIR  DIR/SP/G
                 (UTC)          (F)  (DEG/KT/KT) (MB)    (MI)
HARRISON CRIB    1600            54  150/ 12/ 14   N/A
BURNHAM HARBOR   1600            65  200/  7/ 12   N/A
CALUMET HARBOR   1600            63  180/  9/ 14 1023.4F
BURNS HARBOR     NOT AVBL
MICHIGAN CITY    1600            61  160/ 11/ 15   N/A
$$

ABBREVIATIONS USED IN REMARKS
   TC - TEMPERATURE IN CELSIUS
  WCI - WIND CHILL INDEX
   HX - HEAT INDEX
  VSB - VISIBILITY
$$



USA.gov is the U.S. government's official web portal to all federal, state and local government web resources and services.